Location: Poughquag
(41.6090°N, 73.6820°W)
Time: 12:52:39
(UTC-04:00)

Transit 2A - Pass Details

Date: 04 June 2020
Orbit: 592 x 967 km, 66.7° (Epoch: 06 July)

Event Time Altitude Azimuth Distance (km) Brightness Sun altitude
Rises 19:25:34 0° 339° (NNW) 3,505 10.1 9.1°
Reaches altitude 10° 19:30:03 10° 10° (N) 2,635 9.0 8.3°
Maximum altitude 19:32:16 12° 32° (NNE) 2,524 8.6 7.9°
Drops below altitude 10° 19:34:30 10° 53° (NE) 2,682 8.6 7.5°
Sets 19:39:10 0° 83° (E) 3,652 9.0 6.7°
